[[{"header":{"parameterUnit":"m.s-1","parameterCategory":1,"la1":30.2991,"la2":30.254,"lo1":-89.0895,"lo2":-89.0444,"dy":0.0017,"dx":0.0017,"nx":28,"ny":28,"refTime":"2023-08-21T09:00:00:Z","depth":0,"parameterNumber":2,"parameterNumberName":"U-component_of_WINDS"},"data":[0,0,0,0,0,0,0,0,0,0,0,0,0,0,0,0,0,0,0,0,0,0,0,0,0,0,0,0,0,0,0,0,0,0,0,0,0,0,0,0,0,0,0,0,0,0,0,0,0,0,0,0,0,0,0,0,0,0,-1.7934,-1.7933,0,-1.7852,-1.7851,-1.785,-1.7755,-1.7754,-1.7752,-1.7751,-1.7668,-1.7667,-1.7666,0,0,0,0,0,0,0,0,0,0,0,0,0,-1.8008,-1.8007,-1.7934,-1.7933,-1.7932,-1.7852,-1.7851,-1.785,-1.7756,-1.7754,-1.7752,-1.775,-1.7668,-1.7667,-1.7666,0,0,0,0,0,0,0,0,0,0,0,0,0,-1.7956,-1.8007,-1.7934,-1.7875,-1.7869,-1.7852,-1.7851,-1.785,-1.7756,-1.7754,-1.7752,-1.775,-1.7669,-1.7668,-1.7666,-1.7701,0,0,-1.7662,-1.7662,0,0,0,0,0,0,0,0,-1.7959,-1.7953,-1.7885,-1.7879,-1.7872,-1.7812,-1.7847,-1.78,-1.7757,-1.7799,-1.7751,-1.7749,-1.7718,-1.7712,-1.7702,-1.7697,-1.7694,-1.7662,-1.7661,-1.7661,-1.766,0,0,0,0,0,0,0,-1.7963,-1.7956,-1.7901,-1.7884,-1.7876,-1.7853,-1.7843,-1.7837,-1.7771,-1.7795,-1.7788,-1.778,-1.7714,-1.7703,-1.7699,-1.7693,-1.7662,-1.7661,-1.766,-1.766,-1.7714,-1.7716,0,0,0,0,0,0,-1.7975,-1.796,-1.7904,-1.7899,-1.7911,-1.7853,-1.7842,-1.7833,-1.7771,-1.776,-1.7781,-1.7775,-1.7706,-1.7701,-1.7696,-1.7733,-1.7661,-1.766,-1.7659,-1.7711,-1.7714,-1.7716,0,0,0,0,0,0,-1.7977,-1.7971,-1.7907,-1.7927,-1.7918,-1.7854,-1.7845,-1.7833,-1.7822,-1.7761,-1.7749,-1.7783,-1.7705,-1.7698,-1.7701,-1.7729,-1.7659,-1.7658,-1.7709,-1.7712,-1.7715,-1.7809,0,0,0,0,0,0,-1.798,-1.7972,-1.7985,-1.7928,-1.7917,-1.7914,-1.7847,-1.7833,-1.782,-1.7811,-1.7759,-1.7748,-1.7702,-1.7703,-1.7699,-1.7726,-1.7657,-1.7706,-1.771,-1.7714,-1.7803,-1.7815,-1.7825,0,0,0,0,0,-1.7983,-1.8015,-1.7986,-1.798,-1.7931,-1.7916,-1.7909,-1.7855,-1.7823,-1.7835,-1.7796,-1.775,-1.7726,-1.7704,-1.7699,-1.7726,-1.7704,-1.7709,-1.7714,-1.7798,-1.7813,-1.7825,0,0,0,0,0,0,-1.8076,-1.8006,-1.7974,-1.7988,-1.7959,-1.79,-1.7913,-1.7873,-1.7852,-1.7845,-1.7779,-1.7768,-1.7779,-1.7752,-1.7729,-1.7757,-1.7709,-1.7713,-1.7774,-1.7788,-1.7798,-1.7805,-1.7656,0,0,0,0,0,-1.8098,-1.8091,-1.803,-1.8049,-1.8036,-1.7978,-1.7969,-1.793,-1.7897,-1.7884,-1.7845,-1.7814,-1.78,-1.7792,-1.7775,-1.7798,-1.7786,-1.7814,-1.7825,-1.7835,-1.7839,-1.785,-1.7862,-1.7733,-1.7733,-1.7733,0,0,-1.8144,-1.8105,-1.8105,-1.8067,-1.8039,-1.8034,-1.7968,-1.7964,-1.796,-1.7883,-1.7884,-1.7854,-1.7816,-1.783,-1.7833,-1.7808,-1.7872,-1.7841,-1.7849,-1.7849,-1.7857,-1.7869,-1.788,-1.7736,-1.7736,-1.7735,0,0,-1.8226,-1.8195,-1.8207,-1.8181,-1.814,-1.8101,-1.8105,-1.8052,-1.8029,-1.8029,-1.7972,-1.7965,-1.7942,-1.7917,-1.7901,-1.7974,-1.7931,-1.797,-1.8029,-1.804,-1.805,-1.8059,-1.8086,-1.8096,-1.7975,-1.7975,-1.7975,0,-1.8288,-1.8277,-1.8219,-1.822,-1.8205,-1.8135,-1.8148,-1.8125,-1.8081,-1.8073,-1.8044,-1.8014,-1.7983,-1.799,-1.8008,-1.7997,-1.7999,-1.7976,-1.8053,-1.8062,-1.8069,-1.8094,-1.8104,-1.798,-1.798,-1.7979,-1.7979,0,-1.8357,-1.835,-1.8365,-1.8325,-1.8311,-1.8318,-1.8261,-1.8255,-1.8217,-1.8182,-1.8183,-1.8143,-1.8118,-1.8116,-1.808,-1.8118,-1.8104,-1.8065,-1.8016,-1.8087,-1.811,-1.8119,-1.7987,-1.7986,-1.7984,-1.7983,0,0,-1.8495,-1.8422,-1.8429,-1.841,-1.836,-1.8354,-1.8357,-1.8332,-1.8329,-1.8301,-1.8303,-1.8285,-1.8249,-1.8231,-1.8191,-1.8201,-1.8262,-1.8161,-1.8159,-1.8182,-1.8303,-1.8334,-1.8346,-1.8233,-1.8234,-1.8236,-1.8307,0,-1.8568,-1.857,-1.8518,-1.8535,-1.8528,-1.8462,-1.8465,-1.8435,-1.8402,-1.8391,-1.8354,-1.8343,-1.8296,-1.8285,-1.8292,-1.8253,-1.8286,-1.8247,-1.8235,-1.8235,-1.8248,-1.8357,-1.8389,-1.8458,-1.8315,-1.8317,-1.8318,0,-1.8654,-1.8631,-1.8647,-1.8597,-1.8592,-1.8596,-1.8569,-1.856,-1.8525,-1.85,-1.8481,-1.8435,-1.8435,-1.8387,-1.8387,-1.8362,-1.8354,-1.8334,-1.8336,-1.8333,-1.8282,-1.8359,-1.8479,-1.849,-1.8331,-1.833,-1.8329,0,-1.8755,-1.8728,-1.8734,-1.872,-1.8661,-1.8665,-1.8641,-1.8603,-1.8592,-1.8568,-1.856,-1.8538,-1.8525,-1.8509,-1.8458,-1.8428,-1.8464,-1.8412,-1.8444,-1.8446,-1.8456,-1.8456,-1.8578,-1.8449,-1.8449,-1.8449,-1.8448,0,-1.8842,-1.8855,-1.8779,-1.8783,-1.8795,-1.8735,-1.8749,-1.8718,-1.8685,-1.8683,-1.8623,-1.8622,-1.8555,-1.8546,-1.8506,-1.8513,-1.8507,-1.8488,-1.8477,-1.8494,-1.8497,-1.8488,-1.8483,-1.8451,-1.8451,-1.845,-1.845,0,-1.8957,-1.8907,-1.8909,-1.8853,-1.884,-1.8852,-1.8804,-1.8805,-1.8768,-1.8765,-1.8761,-1.8703,-1.869,-1.8637,-1.8611,-1.8584,-1.8605,-1.8583,-1.8617,-1.861,-1.8646,-1.8644,-1.8767,-1.878,-1.8643,-1.8644,-1.8645,0,-1.9017,-1.9026,-1.8971,-1.8965,-1.8943,-1.8934,-1.8922,-1.8863,-1.8853,-1.8813,-1.882,-1.8802,-1.8784,-1.8766,-1.8722,-1.8702,-1.868,-1.8725,-1.8677,-1.8694,-1.8682,-1.8683,-1.8684,-1.8736,-1.8738,-1.8739,-1.874,0,-1.913,-1.9104,-1.9089,-1.9066,-1.9054,-1.9032,-1.9007,-1.9006,-1.894,-1.8932,-1.8918,-1.8904,-1.8877,-1.8861,-1.8833,-1.8808,-1.8764,-1.8755,-1.8762,-1.878,-1.8799,-1.879,-1.8646,-1.8753,-1.8752,-1.8751,-1.875,-1.875,-1.922,-1.9224,-1.9187,-1.9172,-1.9147,-1.9126,-1.9125,-1.9087,-1.9074,-1.9048,-1.9014,-1.9004,-1.8969,-1.8927,-1.8906,-1.8898,-1.8873,-1.8882,-1.8885,-1.8888,-1.8897,-1.88,-1.8892,-1.8892,-1.8891,-1.8891,-1.8891,0,-1.933,-1.9302,-1.929,-1.9257,-1.9246,-1.9204,-1.9175,-1.9168,-1.9161,-1.9131,-1.9115,-1.9099,-1.9082,-1.9037,-1.9016,-1.9018,-1.8997,-1.9015,-1.9014,-1.901,-1.892,-1.8917,-1.9032,-1.9032,-1.9032,-1.9032,-1.9032,-1.9032,-1.9386,-1.9392,-1.9362,-1.9356,-1.9327,-1.9318,-1.9305,-1.9284,-1.9261,-1.9245,-1.9231,-1.9201,-1.9166,-1.9141,-1.9125,-1.9111,-1.9107,-1.9132,-1.9112,-1.9029,-1.9016,-1.9003,-1.9,-1.9131,-1.9131,-1.9203,-1.9203,-1.9204]},{"header":{"parameterUnit":"m.s-1","parameterCategory":1,"la1":30.2991,"la2":30.254,"lo1":-89.0895,"lo2":-89.0444,"dy":0.0017,"dx":0.0017,"nx":28,"ny":28,"refTime":"2023-08-21T09:00:00:Z","depth":0,"parameterNumber":3,"parameterNumberName":"V-component_of_WINDS"},"data":[0,0,0,0,0,0,0,0,0,0,0,0,0,0,0,0,0,0,0,0,0,0,0,0,0,0,0,0,0,0,0,0,0,0,0,0,0,0,0,0,0,0,0,0,0,0,0,0,0,0,0,0,0,0,0,0,0,0,-1.2803,-1.2804,0,-1.2889,-1.289,-1.2891,-1.2883,-1.2882,-1.2881,-1.288,-1.2968,-1.2971,-1.2975,0,0,0,0,0,0,0,0,0,0,0,0,0,-1.2633,-1.2636,-1.2803,-1.2804,-1.2805,-1.2889,-1.289,-1.2891,-1.2884,-1.2882,-1.288,-1.2879,-1.2967,-1.2971,-1.2975,0,0,0,0,0,0,0,0,0,0,0,0,0,-1.2711,-1.2637,-1.2803,-1.2811,-1.2813,-1.2888,-1.289,-1.2891,-1.2884,-1.2882,-1.288,-1.2878,-1.2965,-1.297,-1.2976,-1.3048,0,0,-1.2992,-1.2994,0,0,0,0,0,0,0,0,-1.2707,-1.2718,-1.2809,-1.2811,-1.2813,-1.2873,-1.2862,-1.2944,-1.2884,-1.2857,-1.288,-1.2877,-1.2938,-1.2945,-1.2966,-1.3052,-1.3056,-1.2992,-1.2996,-1.2998,-1.3,0,0,0,0,0,0,0,-1.2701,-1.2714,-1.2837,-1.281,-1.2813,-1.2811,-1.282,-1.2877,-1.2907,-1.2859,-1.2859,-1.2869,-1.2939,-1.2961,-1.2968,-1.3057,-1.2992,-1.2997,-1.3,-1.3002,-1.3207,-1.3209,0,0,0,0,0,0,-1.2694,-1.2709,-1.2834,-1.2839,-1.2754,-1.2816,-1.2826,-1.2856,-1.2907,-1.2913,-1.2871,-1.2869,-1.2953,-1.2962,-1.2971,-1.3059,-1.2998,-1.3003,-1.3006,-1.3204,-1.3207,-1.3209,0,0,0,0,0,0,-1.269,-1.2705,-1.2831,-1.2774,-1.279,-1.2821,-1.2855,-1.2859,-1.2881,-1.2916,-1.2921,-1.2888,-1.2951,-1.2963,-1.3029,-1.3062,-1.3005,-1.301,-1.3202,-1.3205,-1.3208,-1.3236,0,0,0,0,0,0,-1.2685,-1.2704,-1.2732,-1.2775,-1.2793,-1.2887,-1.2857,-1.2862,-1.289,-1.2888,-1.2933,-1.2939,-1.2951,-1.3021,-1.3034,-1.3069,-1.3014,-1.3199,-1.3203,-1.3207,-1.3232,-1.324,-1.3246,0,0,0,0,0,-1.2679,-1.2736,-1.2733,-1.2748,-1.2829,-1.2889,-1.29,-1.2913,-1.2893,-1.2921,-1.2943,-1.2937,-1.3056,-1.3028,-1.3042,-1.3079,-1.3197,-1.3202,-1.3207,-1.3229,-1.3239,-1.3246,0,0,0,0,0,0,-1.2696,-1.2742,-1.2739,-1.2812,-1.2847,-1.2888,-1.2924,-1.2922,-1.2963,-1.296,-1.2974,-1.2984,-1.305,-1.3071,-1.3038,-1.3151,-1.3124,-1.3132,-1.3136,-1.3145,-1.3152,-1.3146,-1.3019,0,0,0,0,0,-1.2708,-1.2754,-1.2791,-1.2852,-1.2869,-1.2894,-1.292,-1.2927,-1.2964,-1.2979,-1.3006,-1.3042,-1.3087,-1.3117,-1.316,-1.3235,-1.3245,-1.3267,-1.3274,-1.328,-1.3287,-1.3328,-1.3339,-1.3226,-1.3226,-1.3226,0,0,-1.2734,-1.2765,-1.2793,-1.2856,-1.2884,-1.2931,-1.2906,-1.2957,-1.2992,-1.2986,-1.305,-1.3071,-1.3112,-1.3182,-1.3214,-1.3202,-1.332,-1.3286,-1.329,-1.3295,-1.3334,-1.3345,-1.3355,-1.3229,-1.3229,-1.3228,0,0,-1.2805,-1.2833,-1.2886,-1.2915,-1.2957,-1.2972,-1.2985,-1.3027,-1.304,-1.3104,-1.3101,-1.3143,-1.3221,-1.325,-1.3275,-1.3356,-1.3352,-1.337,-1.3407,-1.3447,-1.3456,-1.3464,-1.3494,-1.3504,-1.3377,-1.3377,-1.3377,0,-1.2832,-1.2903,-1.2914,-1.2965,-1.2993,-1.299,-1.3044,-1.3071,-1.3126,-1.3145,-1.3129,-1.3227,-1.3254,-1.3331,-1.3351,-1.3371,-1.3387,-1.3366,-1.3454,-1.3462,-1.347,-1.3498,-1.3509,-1.3379,-1.3379,-1.3378,-1.3378,0,-1.2934,-1.2983,-1.3021,-1.3073,-1.3105,-1.3158,-1.3177,-1.3208,-1.3211,-1.3229,-1.3294,-1.3326,-1.3376,-1.3395,-1.3399,-1.3472,-1.3463,-1.3451,-1.3424,-1.3482,-1.3509,-1.352,-1.3382,-1.3381,-1.338,-1.338,0,0,-1.302,-1.3077,-1.3091,-1.3115,-1.3161,-1.3199,-1.3251,-1.33,-1.3326,-1.3363,-1.3408,-1.3473,-1.3462,-1.349,-1.3497,-1.3532,-1.3595,-1.3515,-1.3516,-1.353,-1.3679,-1.3689,-1.3701,-1.3591,-1.3594,-1.3595,-1.3675,0,-1.3096,-1.3189,-1.32,-1.3282,-1.3328,-1.3325,-1.337,-1.3403,-1.342,-1.3461,-1.3479,-1.3526,-1.3507,-1.3524,-1.3558,-1.358,-1.3625,-1.3574,-1.3633,-1.3635,-1.3625,-1.3715,-1.3726,-1.38,-1.3686,-1.3688,-1.3689,0,-1.3198,-1.3238,-1.3325,-1.3365,-1.3384,-1.3425,-1.347,-1.3509,-1.3546,-1.3556,-1.3587,-1.359,-1.3643,-1.3613,-1.3687,-1.3652,-1.3677,-1.3691,-1.3694,-1.3701,-1.3667,-1.3726,-1.3824,-1.3836,-1.3706,-1.3704,-1.3703,0,-1.3253,-1.3329,-1.3391,-1.3411,-1.3458,-1.3487,-1.3508,-1.3543,-1.3571,-1.3611,-1.363,-1.3675,-1.37,-1.3735,-1.3749,-1.3726,-1.3823,-1.3793,-1.3833,-1.3833,-1.3855,-1.3854,-1.396,-1.3869,-1.3869,-1.3869,-1.3868,0,-1.3339,-1.3392,-1.3416,-1.3454,-1.3514,-1.3526,-1.3584,-1.3604,-1.3635,-1.3677,-1.3677,-1.3716,-1.3732,-1.3774,-1.3785,-1.3845,-1.3856,-1.3866,-1.3868,-1.3867,-1.3866,-1.3884,-1.388,-1.3872,-1.3871,-1.387,-1.387,0,-1.3411,-1.3429,-1.3496,-1.3535,-1.3546,-1.3589,-1.3622,-1.3659,-1.3675,-1.3728,-1.3741,-1.3766,-1.3815,-1.3832,-1.3892,-1.3899,-1.3969,-1.3967,-1.3957,-1.3958,-1.3997,-1.3994,-1.412,-1.4138,-1.4034,-1.4035,-1.4036,0,-1.3465,-1.3506,-1.3549,-1.3577,-1.3599,-1.3644,-1.3673,-1.3686,-1.3716,-1.3761,-1.3793,-1.3841,-1.3881,-1.3959,-1.3983,-1.4029,-1.4028,-1.4069,-1.4035,-1.4032,-1.403,-1.4028,-1.4032,-1.4076,-1.4077,-1.4078,-1.4079,0,-1.3559,-1.3565,-1.3607,-1.3653,-1.3687,-1.3724,-1.3759,-1.3781,-1.3799,-1.3833,-1.3883,-1.3914,-1.3975,-1.4023,-1.407,-1.4091,-1.4088,-1.4089,-1.4101,-1.41,-1.4093,-1.4099,-1.3976,-1.4087,-1.4086,-1.4085,-1.4085,-1.4084,-1.3624,-1.3661,-1.3697,-1.3743,-1.3771,-1.3804,-1.384,-1.386,-1.3903,-1.3953,-1.3958,-1.4012,-1.4047,-1.4109,-1.4133,-1.4175,-1.4164,-1.4181,-1.4185,-1.4189,-1.4193,-1.4085,-1.4183,-1.4183,-1.4183,-1.4183,-1.4183,0,-1.3719,-1.3742,-1.3785,-1.3834,-1.387,-1.3864,-1.3902,-1.3933,-1.3981,-1.4014,-1.4053,-1.411,-1.4157,-1.4184,-1.4231,-1.4259,-1.4259,-1.4271,-1.427,-1.4275,-1.42,-1.4185,-1.4271,-1.4271,-1.4271,-1.4271,-1.4271,-1.4271,-1.3773,-1.3834,-1.3845,-1.392,-1.3942,-1.3995,-1.4018,-1.4048,-1.4074,-1.4139,-1.4177,-1.4194,-1.4225,-1.4274,-1.4316,-1.4323,-1.4341,-1.4354,-1.436,-1.4289,-1.428,-1.4272,-1.4258,-1.4358,-1.4358,-1.4432,-1.4433,-1.4433]}]]